This demonstration page uses our WeatherBlox Daily Observations layout. Learn more.

Left ArrowRight Arrow

34.74481, -87.66753

Hourly Observations for May 16, 2022

Temp ( °F °C ) Dew Point ( °F °C ) Humidity (%) Winds ( mph kmh ) Pressure ( in mb ) Visibility ( mi km ) Precip ( " mm )
12:53 am 00:53 Clear 67 19.4 64 17.8 91 91 N 3 6 29.83 1010 10 16 0.00 0.00
1:53 am 01:53 Clear 65 18.3 63 17.2 93 93 NNW 3 6 29.83 1010 9 14 0.00 0.00
2:53 am 02:53 Clear 66 18.9 63 17.2 90 90 NW 3 6 29.84 1010 10 16 0.00 0.00
3:53 am 03:53 Clear 65 18.3 63 17.2 93 93 WNW 5 7 29.85 1011 10 16 0.00 0.00
4:49 am 04:49 Partly Cloudy 64 18 63 17 94 94 Calm 29.88 1012 9 14 0.00 0.00
4:53 am 04:53 Mostly Cloudy 65 18.3 63 17.2 93 93 Calm 29.87 1012 9 14 0.00 0.00
5:53 am 05:53 Mostly Cloudy 66 18.9 63 17.2 90 90 Calm 29.88 1012 10 16 0.00 0.00
6:53 am 06:53 Sunny 67 19.4 63 17.2 87 87 Calm 29.91 1013 10 16 0.00 0.00
7:53 am 07:53 Mostly Cloudy 68 20 64 17.8 87 87 NNW 3 6 29.92 1013 10 16 0.00 0.00
8:53 am 08:53 Partly Cloudy 70 21.1 64 17.8 82 82 NNE 8 13 29.93 1014 10 16 0.00 0.00
9:53 am 09:53 Partly Cloudy 72 22.2 64 17.8 76 76 NNW 7 11 29.95 1014 10 16 0.00 0.00
10:53 am 10:53 Mostly Sunny 76 24.4 62 16.7 62 62 NE 6 9 29.96 1014 10 16 0.00 0.00
11:53 am 11:53 Sunny 79 26.1 59 15 50 50 NNW 8 13 29.95 1014 10 16 0.00 0.00
12:53 pm 12:53 Sunny 80 26.7 58 14.4 47 47 NNE 8 13 29.94 1014 10 16 0.00 0.00
1:53 pm 13:53 Sunny 80 26.7 58 14.4 47 47 NNW 10 17 29.94 1014 10 16 0.00 0.00
2:53 pm 14:53 Sunny 82 27.8 57 13.9 42 42 VRB 7 11 29.93 1013 10 16 0.00 0.00
3:53 pm 15:53 Sunny 81 27.2 55 12.8 41 41 N 8 13 29.91 1013 10 16 0.00 0.00
4:53 pm 16:53 Sunny 80 26.7 55 12.8 42 42 NE 3 6 29.91 1013 10 16 0.00 0.00
5:53 pm 17:53 Sunny 80 26.7 52 11.1 38 38 N 6 9 29.91 1013 10 16 0.00 0.00
6:53 pm 18:53 Sunny 78 25.6 55 12.8 45 45 NNW 3 6 29.92 1013 10 16 0.00 0.00
7:53 pm 19:53 Clear 73 22.8 54 12.2 51 51 N 5 7 29.93 1014 10 16 0.00 0.00
8:53 pm 20:53 Clear 71 21.7 54 12.2 55 55 N 5 7 29.95 1014 10 16 0.00 0.00
9:53 pm 21:53 Clear 70 21.1 51 10.6 51 51 N 5 7 29.97 1015 10 16 0.00 0.00
10:53 pm 22:53 Clear 68 20 51 10.6 55 55 N 3 6 29.99 1016 10 16 0.00 0.00
11:53 pm 23:53 Clear 66 18.9 53 11.7 63 63 NNE 3 6 29.98 1015 10 16 0.00 0.00

Powered by AerisWeather